Change the Weather History Date:

Wednesday, July 24, 2013

  Actual Average (KGSO) Record (KGSO)
Temperature  
Mean Temperature 76 °F 78 °F  
Max Temperature 88 °F 88 °F 99 °F (1914)
Min Temperature 65 °F 69 °F 52 °F (1947)
Degree Days  
Heating Degree Days 0 0  
Month to date heating degree days 0  
Since 1 June heating degree days 6  
Since 1 July heating degree days 0  
Cooling Degree Days 12 14  
Month to date cooling degree days 330  
Year to date cooling degree days 796  
Since 1 June cooling degree days 637  
Growing Degree Days 26 (Base 50)    
Moisture  
Dew Point 67 °F    
Average Humidity 75    
Maximum Humidity 98    
Minimum Humidity 44    
Precipitation  
Precipitation 0.00 in 0.15 in 3.14 in (1975)
Month to date precipitation 3.39  
Year to date precipitation 23.82  
Sea Level Pressure  
Sea Level Pressure 29.85 in    
Wind  
Wind Speed 1 mph (North)    
Max Wind Speed 10 mph    
Max Gust Speed -    
Visibility 8 miles    
Events      
T = Trace of Precipitation, MM = Missing Value Source: NWS Daily Summary

Daily Weather History Graph

Daily Weather History Graph

Search for Another Location

Airport or City:

Trip Planner

Search our weather history database for the weather conditions in past years. The results will help you decide how hot, cold, wet, or windy it might be!

Date:

Astronomy

Jul. 24, 2013 Rise Set
Actual Time 6:19 AM EDT 8:32 PM EDT
Civil Twilight 5:50 AM EDT 9:01 PM EDT
Nautical Twilight 5:15 AM EDT 9:37 PM EDT
Astronomical Twilight 4:36 AM EDT 10:16 PM EDT
Moon 9:43 PM EDT (7/24) 8:32 AM EDT (7/24)
Length of Visible Light 15h 11m
Length of Day
14h 12m
Waning Gibbous, 95% of the Moon is Illuminated
Jul 24
Waning Gibbous
Jul 29
Last Quarter
Aug 6
New
Aug 14
First Quarter
Aug 20
Full

Hourly Weather History & Observations

Time (EDT) Temp. Heat Index Dew Point Humidity Pressure Visibility Wind Dir Wind Speed Gust Speed Precip Events Conditions
12:15 AM 70.0 °F - 68.9 °F 96% 29.85 in 5.0 mi Calm Calm - N/A   Clear
12:35 AM 68.9 °F - 67.8 °F 96% 29.85 in 4.0 mi Calm Calm - N/A   Clear
12:55 AM 69.4 °F - 68.5 °F 97% 29.85 in 5.0 mi Calm Calm - N/A   Clear
1:15 AM 68.9 °F - 67.6 °F 96% 29.84 in 5.0 mi Calm Calm - N/A   Clear
1:35 AM 68.2 °F - 67.1 °F 96% 29.84 in 4.0 mi Calm Calm - N/A   Clear
1:55 AM 68.7 °F - 67.8 °F 97% 29.84 in 5.0 mi Calm Calm - N/A   Clear
2:15 AM 68.2 °F - 67.1 °F 96% 29.83 in 4.0 mi Calm Calm - N/A   Clear
2:35 AM 68.0 °F - 67.1 °F 97% 29.82 in 4.0 mi Calm Calm - N/A   Clear
2:55 AM 68.0 °F - 67.1 °F 97% 29.82 in 4.0 mi Calm Calm - N/A   Clear
3:15 AM 68.0 °F - 67.1 °F 97% 29.81 in 4.0 mi Calm Calm - N/A   Clear
3:35 AM 67.3 °F - 66.4 °F 97% 29.81 in 4.0 mi Calm Calm - N/A   Clear
3:55 AM 67.1 °F - 66.2 °F 97% 29.81 in 4.0 mi Calm Calm - N/A   Clear
4:15 AM 67.1 °F - 66.2 °F 97% 29.80 in 3.0 mi Calm Calm - N/A   Clear
4:35 AM 66.6 °F - 65.7 °F 97% 29.80 in 4.0 mi Calm Calm - N/A   Clear
4:55 AM 66.2 °F - 65.3 °F 97% 29.80 in 4.0 mi Calm Calm - N/A   Clear
5:15 AM 66.4 °F - 65.5 °F 97% 29.81 in 4.0 mi Calm Calm - N/A   Clear
5:35 AM 66.6 °F - 65.8 °F 98% 29.80 in 5.0 mi Calm Calm - N/A   Clear
5:55 AM 66.2 °F - 65.3 °F 97% 29.81 in 4.0 mi Calm Calm - N/A   Clear
6:15 AM 66.2 °F - 65.3 °F 97% 29.82 in 1.2 mi Calm Calm - N/A   Mist
6:35 AM 65.3 °F - 64.4 °F 97% 29.83 in 2.5 mi Calm Calm - N/A   Clear
6:55 AM 66.2 °F - 65.3 °F 97% 29.83 in 3.0 mi Calm Calm - N/A   Clear
7:15 AM 66.7 °F - 66.0 °F 98% 29.83 in 4.0 mi Calm Calm - N/A   Clear
7:35 AM 67.6 °F - 66.6 °F 96% 29.84 in 5.0 mi Calm Calm - N/A   Clear
7:55 AM 68.5 °F - 67.1 °F 95% 29.85 in 7.0 mi Calm Calm - N/A   Clear
8:15 AM 71.4 °F - 68.5 °F 91% 29.85 in 10.0 mi Calm Calm - N/A   Clear
8:35 AM 74.1 °F - 69.6 °F 86% 29.85 in 10.0 mi Calm Calm - N/A   Clear
8:55 AM 77.9 °F - 71.1 °F 79% 29.85 in 10.0 mi Calm Calm - N/A   Clear
9:15 AM 80.1 °F 83.4 °F 70.5 °F 73% 29.85 in 10.0 mi Calm Calm - N/A   Clear
9:35 AM 81.9 °F 85.4 °F 69.4 °F 66% 29.86 in 10.0 mi Calm Calm - N/A   Scattered Clouds
9:55 AM 80.1 °F 83.4 °F 70.5 °F 73% 29.86 in 10.0 mi Calm Calm - N/A   Mostly Cloudy
10:15 AM 81.3 °F 84.8 °F 70.0 °F 68% 29.86 in 10.0 mi Calm Calm - N/A   Scattered Clouds
10:35 AM 81.7 °F 84.5 °F 68.0 °F 63% 29.87 in 10.0 mi Calm Calm - N/A   Mostly Cloudy
10:55 AM 81.9 °F 85.0 °F 68.5 °F 64% 29.87 in 10.0 mi Calm Calm - N/A   Mostly Cloudy
11:15 AM 81.1 °F 83.2 °F 66.2 °F 60% 29.87 in 10.0 mi NNE 3.5 mph - N/A   Mostly Cloudy
11:35 AM 83.7 °F 86.5 °F 67.3 °F 58% 29.87 in 10.0 mi North 3.5 mph - N/A   Scattered Clouds
12:15 PM 85.5 °F 88.2 °F 67.3 °F 54% 29.87 in 10.0 mi East 3.5 mph - N/A   Clear
12:35 PM 86.0 °F 88.8 °F 67.3 °F 53% 29.88 in 10.0 mi North 3.5 mph - N/A   Clear
12:55 PM 87.1 °F 90.2 °F 67.3 °F 52% 29.87 in 10.0 mi East 3.5 mph - N/A   Clear
1:15 PM 88.3 °F 92.4 °F 68.5 °F 52% 29.86 in 10.0 mi WNW 5.8 mph - N/A   Clear
1:35 PM 86.7 °F 90.6 °F 68.7 °F 55% 29.86 in 10.0 mi North 6.9 mph - N/A   Scattered Clouds
1:55 PM 85.5 °F 88.2 °F 66.9 °F 54% 29.86 in 10.0 mi North 6.9 mph - N/A   Clear
2:15 PM 84.6 °F 87.6 °F 68.0 °F 57% 29.86 in 10.0 mi North 3.5 mph - N/A   Clear
2:35 PM 88.7 °F 91.1 °F 66.2 °F 47% 29.85 in 10.0 mi NW 9.2 mph - N/A   Clear
2:55 PM 87.8 °F 89.4 °F 64.4 °F 46% 29.85 in 10.0 mi NNW 8.1 mph - N/A   Clear
3:15 PM 87.8 °F 90.0 °F 65.7 °F 48% 29.85 in 10.0 mi North 6.9 mph - N/A   Scattered Clouds
3:35 PM 88.2 °F 90.9 °F 66.7 °F 49% 29.85 in 10.0 mi NW 6.9 mph - N/A   Scattered Clouds
3:55 PM 87.6 °F 89.1 °F 64.4 °F 46% 29.84 in 10.0 mi NNW 4.6 mph - N/A   Scattered Clouds
4:15 PM 88.0 °F 90.0 °F 65.3 °F 47% 29.83 in 10.0 mi NNW 10.4 mph - N/A   Scattered Clouds
4:35 PM 87.6 °F 88.8 °F 64.0 °F 45% 29.83 in 10.0 mi NW 9.2 mph - N/A   Clear
4:55 PM 87.8 °F 89.1 °F 64.0 °F 45% 29.83 in 10.0 mi NNW 8.1 mph - N/A   Scattered Clouds
5:15 PM 87.1 °F 88.3 °F 64.2 °F 46% 29.84 in 10.0 mi NNW 8.1 mph - N/A   Scattered Clouds
5:35 PM 87.6 °F 88.5 °F 63.1 °F 44% 29.83 in 10.0 mi NNW 6.9 mph - N/A   Clear
5:55 PM 87.1 °F 88.0 °F 63.1 °F 45% 29.83 in 10.0 mi NNW 8.1 mph - N/A   Clear
6:15 PM 85.5 °F 87.1 °F 64.8 °F 50% 29.83 in 10.0 mi North 6.9 mph - N/A   Clear
6:35 PM 85.6 °F 86.3 °F 63.0 °F 46% 29.83 in 10.0 mi NNW 5.8 mph - N/A   Clear
6:55 PM 85.1 °F 85.9 °F 63.0 °F 47% 29.83 in 10.0 mi North 6.9 mph - N/A   Clear
7:15 PM 84.2 °F 86.1 °F 65.5 °F 53% 29.83 in 10.0 mi North 3.5 mph - N/A   Clear
7:35 PM 82.9 °F 85.0 °F 65.7 °F 56% 29.83 in 10.0 mi Calm Calm - N/A   Clear
7:55 PM 81.1 °F 83.7 °F 67.6 °F 63% 29.84 in 10.0 mi Calm Calm - N/A   Clear
8:15 PM 76.6 °F - 70.2 °F 80% 29.85 in 10.0 mi Calm Calm - N/A   Clear
8:35 PM 74.5 °F - 69.1 °F 83% 29.86 in 10.0 mi Calm Calm - N/A   Clear
8:55 PM 73.0 °F - 69.3 °F 88% 29.87 in 10.0 mi Calm Calm - N/A   Clear
9:15 PM 73.4 °F - 68.0 °F 83% 29.87 in 10.0 mi Calm Calm - N/A   Scattered Clouds
9:35 PM 71.2 °F - 68.0 °F 89% 29.88 in 10.0 mi Calm Calm - N/A   Scattered Clouds
9:55 PM 70.5 °F - 68.0 °F 92% 29.90 in 10.0 mi Calm Calm - N/A   Clear
10:15 PM 70.2 °F - 67.8 °F 92% 29.90 in 10.0 mi Calm Calm - N/A   Scattered Clouds
10:35 PM 72.7 °F - 67.3 °F 83% 29.91 in 10.0 mi NNW 3.5 mph - N/A   Overcast
10:55 PM 73.4 °F - 65.7 °F 77% 29.92 in 10.0 mi Calm Calm - N/A   Mostly Cloudy
11:15 PM 73.0 °F - 66.4 °F 80% 29.92 in 10.0 mi Calm Calm - N/A   Scattered Clouds
11:35 PM 72.0 °F - 66.4 °F 83% 29.93 in 10.0 mi North 3.5 mph - N/A   Scattered Clouds
11:55 PM 72.0 °F - 66.7 °F 84% 29.93 in 10.0 mi Calm Calm - N/A   Scattered Clouds